Weather in Sitka

United States     57°03′18″N   135°20′34″W
temp.,
°C
wind,
m/s
gust,
m/s
humid.,
%
clouds,
%
prec.,
mm/h
press.,
hPa
HPBL,
m
18 september, sat
sat1801:00+8ene228791 0.1 99143
04:00+7ene2285100 0.1 99123
07:00+8ese1188100 0.4 99223
10:00+10nw1178100 0.4 993284
13:00+11sw1177100 0.3 996413
16:00+10wsw1183100 1.1 998202
19:00+9s1195100 1.6 100062
22:00+9s019386 2.5 100220
19 september, sun
sun1901:00+8sw009260 0.2 100412
04:00+7ese0193100 0.2 100513
07:00+8se119289 0.0 100715
10:00+9ese118985 0.1 100862
13:00+12w226936 0.2 1010830
16:00+12wsw116936 0.6 1011708
19:00+9sse11825 0.1 101211
22:00+8e2285100 0.2 101319
20 september, mon
mon2001:00+8e3390100 0.0 101353
04:00+8e3391100 0.2 1011115
07:00+9ese3491100 0.7 1009180
10:00+8ese4694100 5.4 1006411
13:00+8e4793100 11.3 1004375
16:00+8e3490100 17.7 1003249
19:00+8e339283 0.3 100391
22:00+9se2393100 1.9 100264
21 september, tue
tue2101:00+9se2395100 3.3 100287
04:00+9se3394100 4.8 1001117
07:00+9se3396100 7.1 1001117
10:00+10sse349291 10.1 1001226
13:00+9s479899 5.6 1002507
16:00+9ssw579597 8.4 1004652
19:00+8wsw4997100 3.4 10061105
22:00+7sw459094 7.1 1010439
22 september, wed
wed2201:00+7sw4880100 0.8 10131233
04:00+6wsw4876100 1.1 1016741
07:00+6wsw587485 0.4 1017998
10:00+7sw467192 0.8 10191373
13:00+8sw346490 0.3 10211427
16:00+8s2363100 0.3 10211057
19:00+6ese2278100 0.1 102090
22:00+6ese2289100 0.6 1019101